Notices

What's New in latest Release from April 7th, 2021:

- Updated Glossary, including Speed of Maximum Gust, and Total Hourly Precipitation

- Updated national and regional climate services offices contacts and prices information

- Addition of station inventory lists for 1981-2010, 1971-2000, and 1961-1990 Normals.

If you haven't already, please take our survey and provide feedback about our website: https://eccc.sondage-survey.ca/f/LanguageSelection.aspx?s=442ca660-fcf1-47c0-95a9-59707d6fd709

Hourly Data Report for February 24, 2012

HALIFAX STANFIELD INT'L A
NOVA SCOTIA

44°52'48.060" N
63°30'00.050" W
145.40 m
8202250
71395
YHZ

Download Data

Hourly Data (February 2012)
Hourly Data Report for February 24, 2012
TIME
LST
Temp Definition
°C
Dew Point Definition
°C
Rel Hum Definition
%
Precip. Amount Definition
mm

Wind Dir Definition
10's deg

Wind Spd Definition
km/h
Visibility Definition
km
Stn Press Definition
kPa
Hmdx Definition


Wind Chill Definition


Weather Definition


00:00 2.0 0.6 90   27 33 24.1 97.40     Drizzle
01:00 1.7 0.2 90   27 28 16.1 97.50     Cloudy
02:00 1.9 -0.3 85   28 26 24.1 97.66     Cloudy
03:00 2.0 -0.7 82   28 43 24.1 97.79     Cloudy
04:00 1.8 -1.4 79   28 33 24.1 97.93     Cloudy
05:00 1.3 -1.8 80   30 33 24.1 98.07     Cloudy
06:00 1.1 -2.3 78   29 33 24.1 98.30     Cloudy
07:00 1.0 -2.6 77   30 35 24.1 98.41     Cloudy
08:00 0.8 -2.7 77   30 30 24.1 98.58     Mostly Cloudy
09:00 1.3 -2.8 74   30 30 24.1 98.61     Mostly Cloudy
10:00 1.4 -2.8 74   30 32 24.1 98.77     Cloudy
11:00 2.2 -2.6 71   30 26 24.1 98.85     Cloudy
12:00 3.1 -2.7 66   30 17 24.1 98.96     Cloudy
13:00 3.5 LegendMM LegendMM   32 20 24.1 98.91     Mostly Cloudy
14:00 4.4 -3.1 58   32 9 24.1 98.94     Cloudy
15:00 4.6 -4.8 50   30 9 24.1 98.99     Cloudy
16:00 4.1 -4.3 54   30 9 24.1 99.01     Mostly Cloudy
17:00 3.6 -3.6 59   34 9 24.1 98.97     Mostly Cloudy
18:00 2.4 -3.4 65   5 6 24.1 98.98     Mostly Cloudy
19:00 2.0 -3.3 68   7 9 24.1 98.94     Mostly Cloudy
20:00 1.2 -3.6 70   9 11 24.1 98.90     Mostly Cloudy
21:00 0.3 -3.1 78   12 13 24.1 98.89     Mostly Cloudy
22:00 0.3 -2.5 81   12 13 24.1 98.87     Cloudy
23:00 -0.4 -1.7 91   11 20 24.1 98.66   -6 Cloudy

Notes on Data Quality.

Legend

  • E = Estimated
  • M = Missing
  • NA = Not Available*
  • [empty] = Indicates an unobserved value
Date modified: